Volver al catálogo

FENGYUN 1C DEB

ActivoSSO
NORAD 32414·DEBRIS·🇨🇳 China

Lanzado May 10, 1999 desde Taiyuan Satellite Launch Center

Loading…

Próximos Pases (próximas 24 horas)

TLE

ActualizadoSource: Space-Track

Época: Sep 13, 2026, 11:30 UTC

1 32414U 99025DAA 26256.47942022  .00001444  00000-0  69713-3 0  9992
2 32414  98.8406 331.6899 0043898 289.7366  69.9078 14.19701231976294

Sigue FENGYUN 1C DEB en tiempo real con AllMySat

Download on the App Store